STARLINK-3944 (52544 NORAD) Tracking and Keplerian Element Data
This shows tracking and keplerian element data for the satellite.
Feedback or suggestion? Click here.
Element | Value |
Catalog | 52544 |
Name | STARLINK-3944 |
Epoch Orbit | 130 |
Epoch Day | 167.08334491 |
Epoch Year | 2022 |
RAAN | 132.2629 |
Inclination | 53.2174 |
Eccentricity | 0.0001728 |
Argument of Perigee | 41.1707 |
Mean Anonmoly | 104.4579 |
Mean Motion | 15.32281028 |
Decay Rate | -0.00818911 |
L1 | 1 52544U 22051M 22167.08334491 -.00818911 00000+0 -28005-1 0 9995 |
L2 | 2 52544 53.2174 132.2629 0001728 41.1707 104.4579 15.32281028 1303 |
Live tracking and technical data element details for STARLINK-3944 (NORAD 52544). STARLINK-3944 can be tracked NOW for your location showing map with azimuth and elevation plus other details from your city location.
Track the satellite on the map from your city or location and see movement details for azimuth, elevation, latitude, longitude, range, height, and movement on the map or in text.
IsCatalogInMostPopularTable: catalog: 52544, numindb: 2
Update: records affected: 1
GetName: 52544 STARLINK-3944
Hit Count: updated at: Mon, 27 Jun 2022 06:33:05 GMT